| time (UTC) | temp C | wind direction | speed KPH | gust KPH | rain 1hr cm | rain 24hr cm | rain mn cm | humidity % | barometer mb |
| 20260504000307 | 13 | 265 | 0.0 | 0.0 | 0.00 | 0.00 | 0.00 | 53 | 1016.2 |
| 20260503235748 | 14 | 265 | 0.0 | 0.0 | 0.00 | 0.00 | 0.00 | 52 | 1016.2 |
| 20260503235243 | 15 | 265 | 0.0 | 0.0 | 0.00 | 0.00 | 0.00 | 51 | 1016.2 |
| 20260503234736 | 15 | 265 | 0.0 | 0.0 | 0.00 | 0.00 | 0.00 | 51 | 1016.1 |
| 20260503234450 | 15 | 265 | 0.0 | 0.0 | 0.00 | 0.00 | 0.00 | 49 | 1016.1 |
| 20260503233950 | 16 | 265 | 0.0 | 0.0 | 0.00 | 0.00 | 0.00 | 48 | 1016.1 |
| 20260503233219 | 16 | 265 | 0.0 | 0.0 | 0.00 | 0.00 | 0.00 | 48 | 1016.1 |
| 20260503232714 | 16 | 265 | 0.0 | 0.0 | 0.00 | 0.00 | 0.00 | 46 | 1016.1 |
| 20260503232207 | 16 | 265 | 0.0 | 3.2 | 0.00 | 0.00 | 0.00 | 45 | 1016.1 |
| 20260503231701 | 17 | 265 | 1.6 | 4.8 | 0.00 | 0.00 | 0.00 | 44 | 1016.1 |
| 20260503231155 | 17 | 265 | 3.2 | 11.3 | 0.00 | 0.00 | 0.00 | 43 | 1016.1 |
| 20260503230650 | 17 | 257 | 3.2 | 9.7 | 0.00 | 0.00 | 0.00 | 43 | 1016.0 |
| 20260503230142 | 17 | 243 | 3.2 | 6.4 | 0.00 | 0.00 | 0.00 | 43 | 1015.9 |
| 20260503225636 | 17 | 233 | 3.2 | 9.7 | 0.00 | 0.00 | 0.00 | 40 | 1016.0 |
| 20260503225130 | 17 | 252 | 4.8 | 9.7 | 0.00 | 0.00 | 0.00 | 37 | 1015.9 |
| 20260503224625 | 17 | 298 | 3.2 | 9.7 | 0.00 | 0.00 | 0.00 | 37 | 1015.9 |
| 20260503224118 | 17 | 272 | 3.2 | 11.3 | 0.00 | 0.00 | 0.00 | 39 | 1015.9 |
| 20260503223612 | 17 | 282 | 4.8 | 16.1 | 0.00 | 0.00 | 0.00 | 41 | 1016.1 |
| 20260503223108 | 17 | 264 | 8.0 | 17.7 | 0.00 | 0.00 | 0.00 | 37 | 1016.1 |
| 20260503222601 | 17 | 265 | 8.0 | 19.3 | 0.00 | 0.00 | 0.00 | 35 | 1016.1 |
| 20260503222056 | 18 | 276 | 6.4 | 22.5 | 0.00 | 0.00 | 0.00 | 35 | 1016.0 |
| 20260503222036 | 18 | 251 | 6.4 | 22.5 | 0.00 | 0.00 | 0.00 | 37 | 1016.1 |
| 20260503221043 | 18 | 274 | 8.0 | 16.1 | 0.00 | 0.00 | 0.00 | 36 | 1016.1 |
| 20260503220536 | 18 | 262 | 8.0 | 20.9 | 0.00 | 0.00 | 0.00 | 36 | 1016.1 |
| 20260503220251 | 18 | 247 | 6.4 | 20.9 | 0.00 | 0.00 | 0.00 | 36 | 1016.1 |
| 20260503215525 | 17 | 290 | 4.8 | 12.9 | 0.00 | 0.00 | 0.00 | 36 | 1015.9 |
| 20260503215020 | 17 | 12 | 8.0 | 19.3 | 0.00 | 0.00 | 0.00 | 36 | 1016.0 |
| 20260503214513 | 17 | 280 | 9.7 | 19.3 | 0.00 | 0.00 | 0.00 | 37 | 1015.9 |
| 20260503214008 | 18 | 285 | 8.0 | 17.7 | 0.00 | 0.00 | 0.00 | 35 | 1015.8 |
| 20260503213720 | 18 | 242 | 6.4 | 20.9 | 0.00 | 0.00 | 0.00 | 36 | 1015.8 |
| 20260503212955 | 18 | 286 | 8.0 | 20.9 | 0.00 | 0.00 | 0.00 | 37 | 1015.8 |
| 20260503212449 | 17 | 263 | 8.0 | 17.7 | 0.00 | 0.00 | 0.00 | 35 | 1015.8 |
| 20260503211943 | 18 | 257 | 4.8 | 16.1 | 0.00 | 0.00 | 0.00 | 36 | 1015.9 |
| 20260503211658 | 17 | 275 | 4.8 | 16.1 | 0.00 | 0.00 | 0.00 | 37 | 1015.8 |
| 20260503210931 | 17 | 199 | 8.0 | 17.7 | 0.00 | 0.00 | 0.00 | 34 | 1015.9 |
| 20260503210425 | 17 | 210 | 9.7 | 17.7 | 0.00 | 0.00 | 0.00 | 35 | 1015.9 |
| 20260503205918 | 17 | 182 | 12.9 | 22.5 | 0.00 | 0.00 | 0.00 | 35 | 1015.9 |
| 20260503205412 | 17 | 307 | 9.7 | 20.9 | 0.00 | 0.00 | 0.00 | 35 | 1016.0 |
| 20260503204906 | 17 | 298 | 4.8 | 17.7 | 0.00 | 0.00 | 0.00 | 38 | 1015.9 |
| 20260503204401 | 17 | 170 | 6.4 | 19.3 | 0.00 | 0.00 | 0.00 | 37 | 1015.8 |
| 20260503203854 | 17 | 282 | 9.7 | 19.3 | 0.00 | 0.00 | 0.00 | 36 | 1015.9 |
| 20260503203352 | 17 | 229 | 9.7 | 24.1 | 0.00 | 0.00 | 0.00 | 38 | 1015.9 |
| 20260503202850 | 17 | 331 | 6.4 | 24.1 | 0.00 | 0.00 | 0.00 | 37 | 1015.9 |
| 20260503202352 | 17 | 290 | 6.4 | 16.1 | 0.00 | 0.00 | 0.00 | 37 | 1015.8 |
| 20260503201849 | 17 | 288 | 6.4 | 16.1 | 0.00 | 0.00 | 0.00 | 36 | 1015.8 |
| 20260503201612 | 17 | 299 | 9.7 | 19.3 | 0.00 | 0.00 | 0.00 | 35 | 1015.8 |
| 20260503200848 | 17 | 215 | 11.3 | 24.1 | 0.00 | 0.00 | 0.00 | 34 | 1015.9 |
| 20260503200347 | 17 | 261 | 11.3 | 24.1 | 0.00 | 0.00 | 0.00 | 35 | 1016.1 |
| 20260503195847 | 17 | 226 | 9.7 | 19.3 | 0.00 | 0.00 | 0.00 | 36 | 1016.1 |
| 20260503195348 | 17 | 271 | 6.4 | 17.7 | 0.00 | 0.00 | 0.00 | 37 | 1016.2 |
| 20260503194845 | 16 | 269 | 8.0 | 19.3 | 0.00 | 0.00 | 0.00 | 37 | 1016.3 |
| 20260503194345 | 16 | 251 | 9.7 | 20.9 | 0.00 | 0.00 | 0.00 | 36 | 1016.3 |
| 20260503193845 | 17 | 301 | 9.7 | 20.9 | 0.00 | 0.00 | 0.00 | 35 | 1016.4 |
| 20260503193343 | 17 | 182 | 11.3 | 25.7 | 0.00 | 0.00 | 0.00 | 37 | 1016.3 |
| 20260503193107 | 17 | 269 | 9.7 | 25.7 | 0.00 | 0.00 | 0.00 | 35 | 1016.3 |
| 20260503192341 | 16 | 252 | 9.7 | 20.9 | 0.00 | 0.00 | 0.00 | 35 | 1016.4 |
| 20260503192325 | 16 | 120 | 9.7 | 17.7 | 0.00 | 0.00 | 0.00 | 38 | 1016.5 |
| 20260503191352 | 16 | 278 | 9.7 | 20.9 | 0.00 | 0.00 | 0.00 | 38 | 1016.7 |
| 20260503191101 | 16 | 303 | 12.9 | 20.9 | 0.00 | 0.00 | 0.00 | 40 | 1016.8 |
| 20260503190339 | 16 | 320 | 11.3 | 20.9 | 0.00 | 0.00 | 0.00 | 35 | 1016.7 |
| 20260503185838 | 16 | 248 | 9.7 | 22.5 | 0.00 | 0.00 | 0.00 | 35 | 1016.7 |
| 20260503185338 | 16 | 309 | 9.7 | 22.5 | 0.00 | 0.00 | 0.00 | 38 | 1016.9 |
| 20260503184837 | 16 | 336 | 9.7 | 25.7 | 0.00 | 0.00 | 0.00 | 34 | 1016.9 |
| 20260503184338 | 16 | 237 | 9.7 | 25.7 | 0.00 | 0.00 | 0.00 | 38 | 1016.8 |
| 20260503183837 | 16 | 283 | 9.7 | 20.9 | 0.00 | 0.00 | 0.00 | 41 | 1017.1 |
| 20260503183339 | 16 | 269 | 8.0 | 20.9 | 0.00 | 0.00 | 0.00 | 34 | 1017.1 |
| 20260503182833 | 16 | 276 | 11.3 | 25.7 | 0.00 | 0.00 | 0.00 | 38 | 1017.2 |
| 20260503182817 | 16 | 290 | 12.9 | 25.7 | 0.00 | 0.00 | 0.00 | 37 | 1017.2 |
| 20260503181833 | 16 | 287 | 11.3 | 25.7 | 0.00 | 0.00 | 0.00 | 36 | 1017.2 |
| 20260503181334 | 16 | 210 | 9.7 | 20.9 | 0.00 | 0.00 | 0.00 | 39 | 1017.1 |
| 20260503180833 | 16 | 285 | 11.3 | 25.7 | 0.00 | 0.00 | 0.00 | 36 | 1017.2 |
| 20260503180334 | 16 | 280 | 12.9 | 25.7 | 0.00 | 0.00 | 0.00 | 39 | 1017.2 |
| 20260503175833 | 16 | 309 | 9.7 | 25.7 | 0.00 | 0.00 | 0.00 | 36 | 1017.3 |
| 20260503175559 | 16 | 271 | 9.7 | 20.9 | 0.00 | 0.00 | 0.00 | 40 | 1017.2 |
| 20260503174834 | 16 | 251 | 9.7 | 22.5 | 0.00 | 0.00 | 0.00 | 42 | 1017.4 |
| 20260503174334 | 16 | 235 | 11.3 | 25.7 | 0.00 | 0.00 | 0.00 | 39 | 1017.3 |
| 20260503173833 | 16 | 267 | 9.7 | 25.7 | 0.00 | 0.00 | 0.00 | 38 | 1017.4 |
| 20260503173334 | 16 | 280 | 8.0 | 19.3 | 0.00 | 0.00 | 0.00 | 43 | 1017.4 |
| 20260503173053 | 15 | 260 | 8.0 | 17.7 | 0.00 | 0.00 | 0.00 | 41 | 1017.4 |
| 20260503172547 | 15 | 286 | 11.3 | 22.5 | 0.00 | 0.00 | 0.00 | 44 | 1017.6 |
| 20260503172435 | 15 | 282 | 9.7 | 22.5 | 0.00 | 0.00 | 0.00 | 46 | 1017.6 |
| 20260503171333 | 15 | 305 | 12.9 | 25.7 | 0.00 | 0.00 | 0.00 | 43 | 1017.6 |
| 20260503170832 | 15 | 289 | 12.9 | 25.7 | 0.00 | 0.00 | 0.00 | 42 | 1017.7 |
| 20260503170347 | 15 | 253 | 8.0 | 22.5 | 0.00 | 0.00 | 0.00 | 43 | 1017.7 |
| 20260503150633 | 13 | 261 | 11.3 | 22.5 | 0.00 | 0.03 | 0.00 | 46 | 1018.4 |
| 20260503150127 | 13 | 282 | 9.7 | 19.3 | 0.00 | 0.03 | 0.00 | 47 | 1018.4 |
| 20260503131019 | 11 | 292 | 8.0 | 19.3 | 0.00 | 0.05 | 0.00 | 55 | 1017.9 |
| 20260503130740 | 11 | 210 | 9.7 | 25.7 | 0.00 | 0.05 | 0.00 | 56 | 1018.0 |
| 20260503110827 | 8 | 274 | 3.2 | 8.0 | 0.00 | 0.05 | 0.00 | 68 | 1016.9 |
| 20260503110548 | 8 | 300 | 4.8 | 11.3 | 0.00 | 0.05 | 0.00 | 68 | 1016.9 |
| 20260503090312 | 8 | 294 | 4.8 | 14.5 | 0.00 | 0.05 | 0.00 | 74 | 1014.8 |
| 20260503081236 | 8 | 274 | 3.2 | 6.4 | 0.00 | 0.05 | 0.00 | 82 | 1014.2 |
| 20260503080731 | 8 | 260 | 3.2 | 4.8 | 0.00 | 0.05 | 0.00 | 83 | 1014.1 |
| 20260503080224 | 8 | 269 | 1.6 | 4.8 | 0.00 | 0.05 | 0.00 | 83 | 1014.0 |
| 20260503072642 | 8 | 279 | 1.6 | 4.8 | 0.00 | 0.05 | 0.00 | 84 | 1013.3 |
| 20260503072355 | 8 | 278 | 1.6 | 3.2 | 0.00 | 0.05 | 0.00 | 84 | 1013.3 |
| 20260503071630 | 8 | 278 | 3.2 | 4.8 | 0.00 | 0.05 | 0.00 | 84 | 1013.2 |
| 20260503071124 | 8 | 278 | 3.2 | 4.8 | 0.00 | 0.05 | 0.00 | 85 | 1013.2 |
| 20260503070618 | 8 | 288 | 1.6 | 4.8 | 0.00 | 0.05 | 0.00 | 85 | 1013.1 |
| 20260503070114 | 8 | 287 | 1.6 | 4.8 | 0.00 | 0.05 | 0.00 | 85 | 1013.1 |
| 20260503054442 | 7 | 309 | 0.0 | 0.0 | 0.00 | 0.05 | 0.00 | 88 | 1013.0 |
| 20260503053935 | 7 | 311 | 0.0 | 0.0 | 0.00 | 0.05 | 0.00 | 88 | 1013.0 |
| 20260503053444 | 7 | 311 | 0.0 | 0.0 | 0.00 | 0.05 | 0.00 | 88 | 1013.0 |
| 20260503052924 | 7 | 311 | 0.0 | 0.0 | 0.00 | 0.05 | 0.00 | 87 | 1013.0 |
| 20260503052418 | 7 | 310 | 0.0 | 0.0 | 0.00 | 0.05 | 0.00 | 87 | 1013.0 |
| 20260503051912 | 7 | 311 | 0.0 | 0.0 | 0.00 | 0.05 | 0.00 | 87 | 1013.0 |
| 20260503051407 | 7 | 311 | 0.0 | 0.0 | 0.00 | 0.05 | 0.00 | 86 | 1013.0 |
| 20260503050900 | 7 | 311 | 0.0 | 0.0 | 0.00 | 0.05 | 0.00 | 86 | 1013.0 |
| 20260503050840 | 7 | 311 | 0.0 | 0.0 | 0.00 | 0.05 | 0.00 | 86 | 1013.0 |
| 20260503045856 | 7 | 311 | 0.0 | 0.0 | 0.00 | 0.05 | 0.00 | 86 | 1013.1 |
| 20260503045357 | 7 | 311 | 0.0 | 0.0 | 0.00 | 0.05 | 0.00 | 86 | 1013.0 |
| 20260503044858 | 7 | 311 | 0.0 | 0.0 | 0.00 | 0.05 | 0.00 | 86 | 1013.0 |
| 20260503044358 | 7 | 311 | 0.0 | 0.0 | 0.00 | 0.05 | 0.00 | 86 | 1013.1 |
| 20260503043857 | 7 | 311 | 0.0 | 0.0 | 0.00 | 0.05 | 0.00 | 86 | 1013.0 |
| 20260503043355 | 8 | 311 | 0.0 | 0.0 | 0.00 | 0.05 | 0.00 | 86 | 1013.1 |
| 20260503042853 | 8 | 311 | 0.0 | 0.0 | 0.00 | 0.05 | 0.00 | 86 | 1013.3 |
| 20260503042354 | 8 | 310 | 0.0 | 0.0 | 0.00 | 0.05 | 0.00 | 85 | 1013.2 |
| 20260503042117 | 8 | 311 | 0.0 | 0.0 | 0.00 | 0.05 | 0.00 | 86 | 1013.1 |
| 20260503041354 | 8 | 311 | 0.0 | 0.0 | 0.00 | 0.05 | 0.00 | 85 | 1012.9 |
| 20260503040853 | 8 | 311 | 0.0 | 0.0 | 0.00 | 0.05 | 0.00 | 85 | 1012.9 |
| 20260503040351 | 8 | 311 | 0.0 | 0.0 | 0.00 | 0.05 | 0.00 | 85 | 1013.2 |
| 20260503035849 | 8 | 310 | 0.0 | 0.0 | 0.00 | 0.05 | 0.05 | 85 | 1013.1 |
| 20260503035349 | 8 | 311 | 0.0 | 0.0 | 0.00 | 0.05 | 0.05 | 85 | 1012.9 |
| 20260503034851 | 8 | 311 | 0.0 | 0.0 | 0.00 | 0.05 | 0.05 | 85 | 1013.0 |
| 20260503034342 | 8 | 311 | 0.0 | 0.0 | 0.00 | 0.05 | 0.05 | 85 | 1013.2 |
| 20260503034100 | 8 | 311 | 0.0 | 0.0 | 0.00 | 0.05 | 0.05 | 85 | 1013.3 |
| 20260503033331 | 8 | 311 | 0.0 | 0.0 | 0.00 | 0.05 | 0.05 | 85 | 1013.1 |
| 20260503033045 | 9 | 311 | 0.0 | 0.0 | 0.00 | 0.05 | 0.05 | 85 | 1013.1 |
| 20260503032543 | 9 | 311 | 0.0 | 0.0 | 0.00 | 0.05 | 0.05 | 85 | 1012.9 |
| 20260503031814 | 9 | 311 | 0.0 | 0.0 | 0.00 | 0.05 | 0.05 | 85 | 1013.0 |
| 20260503031307 | 9 | 313 | 0.0 | 0.0 | 0.00 | 0.05 | 0.05 | 85 | 1012.9 |
| 20260503030800 | 9 | 311 | 0.0 | 0.0 | 0.00 | 0.05 | 0.05 | 85 | 1012.9 |
| 20260503030256 | 9 | 311 | 0.0 | 0.0 | 0.00 | 0.05 | 0.05 | 85 | 1013.0 |
| 20260503025748 | 9 | 311 | 0.0 | 0.0 | 0.00 | 0.05 | 0.05 | 84 | 1013.0 |
| 20260503025243 | 9 | 311 | 0.0 | 0.0 | 0.00 | 0.05 | 0.05 | 84 | 1012.9 |
| 20260503024736 | 10 | 311 | 0.0 | 0.0 | 0.00 | 0.05 | 0.05 | 84 | 1012.9 |
| 20260503024233 | 10 | 311 | 0.0 | 0.0 | 0.00 | 0.05 | 0.05 | 84 | 1012.9 |
| 20260503024205 | 10 | 311 | 0.0 | 0.0 | 0.00 | 0.05 | 0.05 | 84 | 1012.9 |
| 20260503023220 | 10 | 311 | 0.0 | 0.0 | 0.00 | 0.05 | 0.05 | 83 | 1013.1 |
| 20260503022712 | 10 | 310 | 0.0 | 0.0 | 0.00 | 0.05 | 0.05 | 83 | 1013.1 |
| 20260503022207 | 10 | 311 | 0.0 | 0.0 | 0.00 | 0.05 | 0.05 | 83 | 1013.2 |
| 20260503021700 | 10 | 310 | 0.0 | 0.0 | 0.00 | 0.05 | 0.05 | 83 | 1013.2 |
| 20260503021154 | 10 | 311 | 0.0 | 0.0 | 0.00 | 0.05 | 0.05 | 83 | 1013.1 |
| 20260503020648 | 10 | 311 | 0.0 | 0.0 | 0.00 | 0.05 | 0.05 | 83 | 1013.1 |
| 20260503020142 | 10 | 310 | 0.0 | 0.0 | 0.00 | 0.05 | 0.05 | 83 | 1013.0 |
| 20260503015637 | 10 | 311 | 0.0 | 0.0 | 0.00 | 0.05 | 0.05 | 82 | 1013.0 |
| 20260503015613 | 10 | 311 | 0.0 | 0.0 | 0.00 | 0.05 | 0.05 | 82 | 1013.0 |
| 20260503014625 | 10 | 311 | 0.0 | 0.0 | 0.00 | 0.05 | 0.05 | 82 | 1013.1 |
| 20260503014120 | 10 | 310 | 0.0 | 0.0 | 0.00 | 0.05 | 0.05 | 83 | 1012.9 |
| 20260503013613 | 10 | 311 | 0.0 | 0.0 | 0.00 | 0.05 | 0.05 | 83 | 1013.0 |
| 20260503013106 | 10 | 311 | 0.0 | 0.0 | 0.00 | 0.05 | 0.05 | 82 | 1013.0 |
| 20260503012600 | 10 | 311 | 0.0 | 0.0 | 0.00 | 0.05 | 0.05 | 82 | 1012.8 |
| 20260503012055 | 10 | 310 | 0.0 | 0.0 | 0.00 | 0.05 | 0.05 | 82 | 1012.7 |
| 20260503011549 | 10 | 308 | 0.0 | 0.0 | 0.00 | 0.05 | 0.05 | 82 | 1012.7 |
| 20260503011307 | 10 | 310 | 0.0 | 0.0 | 0.00 | 0.05 | 0.05 | 82 | 1012.6 |
| 20260503010537 | 11 | 310 | 0.0 | 0.0 | 0.00 | 0.05 | 0.05 | 82 | 1012.7 |
| 20260503010031 | 11 | 310 | 0.0 | 0.0 | 0.00 | 0.05 | 0.05 | 81 | 1012.6 |
| 20260503005526 | 11 | 310 | 0.0 | 0.0 | 0.00 | 0.05 | 0.05 | 81 | 1012.5 |
| 20260503005238 | 11 | 310 | 0.0 | 0.0 | 0.00 | 0.05 | 0.05 | 80 | 1012.5 |
| 20260503004514 | 11 | 311 | 0.0 | 0.0 | 0.00 | 0.05 | 0.05 | 80 | 1012.4 |
| 20260503004007 | 11 | 310 | 0.0 | 0.0 | 0.00 | 0.05 | 0.05 | 79 | 1012.3 |
| 20260503003719 | 11 | 310 | 0.0 | 0.0 | 0.00 | 0.05 | 0.05 | 79 | 1012.2 |
| 20260503002955 | 11 | 310 | 0.0 | 0.0 | 0.00 | 0.05 | 0.05 | 78 | 1012.1 |
| 20260503002449 | 11 | 310 | 0.0 | 0.0 | 0.00 | 0.05 | 0.05 | 78 | 1012.2 |
| 20260503001943 | 11 | 310 | 0.0 | 0.0 | 0.00 | 0.05 | 0.05 | 78 | 1012.1 |
| 20260503001437 | 11 | 310 | 0.0 | 0.0 | 0.00 | 0.05 | 0.05 | 77 | 1012.1 |
| 20260503000930 | 11 | 310 | 0.0 | 0.0 | 0.00 | 0.05 | 0.05 | 77 | 1012.1 |
| 20260503000917 | 12 | 310 | 0.0 | 0.0 | 0.00 | 0.05 | 0.05 | 76 | 1012.0 |